Theta_e
298 298 298 298 298 299 299 299 300 300 300 301 303 303 304 305 306 306 305 305 305 303 303 303 303 304 304 305 306 307 307 308 308 307 308 308 308 311 313 313 314 314 313 312 310 309 310 311 311 311 312 313 313 312 313 312 312 312 313 313 315 315 315 313 311 311 312 313 313 313 314 316 314 313 314 313 312 313 310 312 313 309 311 310 309 327 331
298 298 298 299 299 299 299 300 300 300 300 301 303 304 304 305 306 305 305 305 305 305 305 304 303 304 306 306 307 308 307 307 308 307 307 308 309 312 313 313 313 313 312 312 311 310 310 311 311 311 312 312 313 312 312 312 312 312 313 314 314 315 314 313 313 313 312 315 316 314 314 316 314 313 314 313 314 315 313 314 314 310 312 310 310 326 329
298 298 298 298 299 299 300 300 301 301 301 300 302 303 303 304 304 303 304 304 305 305 306 307 306 305 307 309 308 309 308 307 307 307 307 307 309 312 314 313 312 312 312 312 312 311 311 312 312 312 313 315 314 312 312 313 311 311 316 316 314 314 315 314 314 314 314 316 316 314 313 314 315 315 314 314 313 313 313 312 310 311 313 309 312 325 325
298 298 298 298 299 299 300 301 301 301 301 301 302 304 304 305 304 302 303 304 305 305 306 308 308 307 307 309 308 308 308 307 307 307 307 308 309 311 313 312 312 312 313 314 313 311 310 312 312 312 316 317 314 313 313 311 312 317 322 319 314 315 319 320 319 317 316 315 314 314 315 314 314 314 313 314 315 315 314 311 310 312 312 312 319 325 322
298 298 298 298 299 299 300 301 301 301 302 301 302 305 306 306 304 302 303 303 303 303 304 307 309 308 307 308 309 308 307 308 308 308 309 310 311 312 312 312 313 314 314 315 316 313 311 314 314 316 319 318 314 314 312 311 319 324 320 315 314 317 321 326 326 322 320 319 317 316 316 314 313 314 314 315 316 316 314 311 314 315 313 319 326 325 322
298 298 298 299 299 299 300 301 301 301 302 301 302 306 308 306 304 303 304 304 303 303 304 307 308 309 308 308 309 309 308 309 310 311 311 311 311 313 313 312 313 313 313 315 317 316 314 315 317 318 319 318 316 315 312 313 321 321 314 313 316 317 321 326 326 323 321 321 321 318 316 315 315 315 317 317 317 318 316 314 318 321 321 325 328 325 322
298 298 299 299 299 300 300 301 301 302 302 302 304 307 308 307 305 304 306 308 307 306 307 308 309 309 309 308 308 309 309 311 311 311 312 313 312 312 313 314 312 312 314 315 317 318 317 316 317 319 320 319 318 317 314 314 317 316 313 315 316 317 322 326 325 323 321 321 321 320 319 319 319 317 317 318 317 317 318 318 321 325 328 328 326 324 321
299 299 299 299 299 300 300 300 301 302 303 304 305 307 308 308 307 307 308 309 309 309 310 310 309 309 308 308 308 308 310 312 312 311 311 313 313 312 313 314 313 314 314 314 316 319 319 317 319 322 322 320 319 318 317 316 316 314 315 318 320 320 322 325 324 324 324 322 322 322 322 323 323 321 319 320 321 323 325 327 328 328 328 326 322 320 318
299 299 299 299 299 300 300 300 301 303 304 305 307 307 308 308 309 309 310 310 309 310 311 310 308 308 308 308 309 310 311 312 312 311 310 311 313 313 313 314 316 316 315 315 317 319 319 318 319 321 321 319 319 319 319 317 315 315 317 322 323 321 322 325 323 322 324 324 324 325 325 325 326 326 325 325 327 328 328 328 329 328 325 322 320 318 314
298 298 299 299 299 300 300 300 301 302 304 306 307 306 307 308 309 309 310 310 310 311 311 308 308 309 309 309 310 311 312 312 312 312 310 309 311 313 314 316 318 318 318 319 319 317 316 317 319 321 320 318 317 318 318 316 315 317 320 322 321 320 321 324 322 321 324 325 325 325 323 322 323 323 322 324 325 326 326 326 326 325 323 322 321 317 312
298 298 298 299 299 299 300 300 300 301 304 305 305 306 306 306 307 309 310 310 311 312 311 309 309 310 311 311 310 311 312 311 313 313 311 310 311 311 313 316 318 319 318 318 318 317 315 316 319 321 320 319 318 318 317 315 316 318 320 320 320 320 321 322 321 322 324 325 325 325 321 319 320 318 318 321 323 324 324 322 321 320 319 318 316 313 309
298 298 298 299 298 298 299 299 299 300 301 303 304 305 305 305 306 309 309 309 311 312 311 310 311 311 311 311 310 310 311 311 312 312 311 312 313 312 313 316 318 317 316 315 316 316 317 317 318 319 319 318 318 317 317 317 317 317 318 319 321 320 320 321 320 320 322 322 324 327 325 320 318 316 317 319 320 319 319 318 317 316 315 313 311 310 309
298 298 298 298 297 297 297 298 299 299 300 301 303 305 305 305 306 308 310 310 311 312 311 310 310 311 310 310 310 310 311 311 311 312 312 313 313 314 315 317 317 315 314 315 317 318 319 319 318 318 318 317 318 318 318 319 319 317 316 318 320 320 320 320 319 319 321 321 324 326 323 318 316 316 317 317 317 317 317 316 315 314 313 312 310 309 309
298 298 297 296 296 296 297 298 298 299 300 300 302 304 305 305 306 307 309 310 311 311 310 309 310 311 310 310 310 310 310 311 312 313 313 313 314 315 314 314 314 314 314 316 318 319 319 319 318 318 318 318 319 320 319 319 320 320 319 318 319 320 319 319 320 320 321 321 321 319 317 317 317 317 317 317 318 318 318 316 313 312 312 310 309 308 306
298 298 297 296 295 295 296 296 297 298 300 301 302 304 305 305 305 305 308 310 310 309 309 310 310 310 310 310 310 310 310 311 312 312 312 313 313 313 312 311 311 311 312 316 318 317 317 317 318 319 318 318 318 320 320 319 319 320 321 320 319 320 320 319 320 320 319 320 320 318 319 321 319 317 316 317 318 318 316 316 314 312 310 309 307 306 305
298 298 297 296 295 295 295 295 297 299 300 301 303 304 305 305 304 305 307 309 310 309 309 309 310 310 311 310 310 310 310 311 312 312 312 311 312 311 310 310 310 310 312 315 316 316 316 317 318 319 319 318 319 320 320 319 319 318 320 320 320 321 322 319 318 319 319 320 320 320 321 321 319 317 316 316 317 317 317 319 317 311 309 308 307 306 305
297 297 296 294 294 294 294 296 299 300 301 302 303 304 306 305 304 305 308 309 310 310 308 309 310 311 311 310 309 310 310 311 311 312 312 312 311 311 310 310 310 311 312 314 316 315 315 316 317 318 318 318 318 319 319 320 320 319 319 319 319 321 321 318 317 319 319 319 319 319 319 319 318 317 316 315 316 317 319 322 318 311 308 308 307 306 306
296 295 294 294 294 294 295 297 300 301 302 303 303 305 307 306 305 305 307 310 311 310 308 309 310 310 310 310 310 310 310 310 310 310 311 311 311 311 311 311 312 312 312 314 315 315 315 316 317 318 318 317 317 319 319 320 320 320 320 320 320 320 318 317 318 318 318 318 319 318 317 317 317 316 315 315 316 318 320 320 316 310 309 309 308 307 307
295 294 294 294 294 295 295 298 300 302 302 303 304 307 308 307 306 306 307 311 312 309 308 309 310 310 310 311 311 310 310 310 310 309 309 310 310 311 311 311 313 313 313 314 314 315 315 316 316 316 316 316 317 319 319 319 320 320 320 320 320 319 318 317 318 318 318 319 319 318 317 316 315 315 315 315 317 319 318 315 311 309 309 308 308 307 307
294 294 294 294 295 295 295 297 300 302 303 303 305 309 309 308 306 306 307 310 312 310 308 309 310 310 310 310 311 311 311 312 312 311 310 309 310 311 311 311 312 312 312 313 313 313 313 313 314 314 314 315 318 318 317 317 318 317 319 320 319 318 317 316 317 317 317 317 318 319 318 316 314 315 315 315 316 316 313 311 310 309 308 307 307 307 306
294 294 295 294 295 296 296 296 299 301 303 304 305 309 311 309 306 306 306 308 311 311 309 309 310 310 309 310 310 310 311 311 311 312 312 311 311 311 311 311 312 312 312 313 313 313 313 313 314 315 314 315 317 317 316 317 316 315 316 318 319 318 318 317 317 317 317 317 318 317 316 314 314 315 315 314 314 313 311 311 310 308 307 307 306 306 305
294 294 295 295 295 296 296 296 298 300 302 303 305 310 312 310 307 306 306 307 310 312 310 309 310 310 309 309 309 309 309 310 311 313 314 312 311 311 312 312 312 313 314 314 313 313 313 313 313 314 315 314 315 315 315 316 316 316 315 316 317 317 317 316 315 313 315 316 315 314 314 313 313 314 313 313 313 312 311 310 309 308 308 307 306 305 304
294 295 295 295 295 296 296 297 298 300 302 303 305 310 313 312 309 306 307 309 312 312 311 310 310 310 309 309 309 309 309 309 310 313 314 313 312 311 311 312 312 312 313 315 315 314 313 313 312 312 313 313 314 315 315 314 315 315 315 314 315 315 315 315 314 311 311 312 312 313 313 312 312 312 312 312 312 311 310 310 309 309 308 307 305 305 304
294 295 295 295 295 296 297 298 299 302 303 303 304 308 311 311 309 308 309 312 313 311 310 310 309 309 309 309 308 309 309 309 310 312 314 315 314 313 312 313 313 313 313 314 316 315 313 313 313 312 314 316 315 313 313 314 315 315 314 314 314 314 314 315 314 313 313 313 311 312 312 311 311 311 311 311 311 310 310 309 309 308 307 306 305 305 304
294 295 295 295 295 296 297 298 300 303 304 303 304 308 312 312 310 309 311 313 313 310 308 309 309 309 309 308 308 309 309 309 310 311 313 315 315 315 314 314 316 316 314 313 314 312 310 311 312 312 314 316 315 313 313 314 315 314 314 314 314 314 314 315 314 313 313 312 311 311 311 310 310 310 310 310 310 309 309 309 308 308 307 306 306 305 305
294 295 295 295 296 297 298 299 301 303 303 302 304 308 312 311 310 310 312 313 313 310 308 309 309 308 309 309 308 309 309 309 310 311 312 313 313 314 315 314 314 315 313 312 313 312 310 311 312 312 313 314 315 314 314 314 314 314 314 313 313 313 313 313 313 311 310 310 310 310 310 310 310 309 310 309 309 309 308 308 307 307 306 306 306 306 306
294 295 295 296 296 297 299 301 303 303 303 303 303 306 310 311 310 311 312 312 312 309 307 309 309 308 308 308 308 308 308 309 310 310 311 312 313 314 315 314 313 313 312 311 311 311 311 312 313 313 314 314 314 315 314 314 314 314 314 313 313 313 313 312 311 310 310 310 310 310 311 310 309 309 309 308 308 308 307 307 306 306 305 305 305 305 306
295 295 296 296 296 298 300 303 304 303 303 303 303 306 310 310 310 310 310 310 312 311 308 308 309 309 309 308 307 308 309 309 310 310 311 312 312 313 314 314 313 313 312 311 310 310 311 312 312 313 313 313 313 314 314 313 313 313 313 312 312 313 313 312 312 313 312 311 310 310 311 310 308 308 308 308 307 307 307 307 306 306 306 306 305 305 305
295 295 296 296 296 298 300 303 304 303 303 305 308 311 312 310 310 311 308 307 311 313 309 307 308 309 308 308 307 308 308 309 310 310 310 311 312 312 313 312 312 312 311 310 310 310 311 311 311 312 313 313 313 313 312 312 313 312 312 312 312 312 312 312 312 313 312 310 310 311 310 308 307 307 307 307 307 307 306 306 306 306 306 306 306 305 305
295 296 296 296 296 298 301 303 304 303 305 309 312 312 311 309 310 309 304 304 310 313 309 307 308 308 308 308 308 307 308 308 309 310 310 311 311 311 312 311 311 311 310 310 310 310 309 309 310 311 312 312 312 312 311 311 312 311 310 310 311 310 310 311 312 312 311 310 310 309 308 307 307 307 307 307 308 308 307 306 306 306 306 306 306 306 305
296 296 296 296 297 298 301 304 304 303 306 311 312 309 309 309 309 307 302 303 309 312 310 307 307 307 307 308 308 307 308 308 309 309 310 311 310 310 311 311 310 310 310 309 309 309 309 309 310 311 311 309 310 311 311 311 311 310 309 309 310 309 310 310 310 310 310 309 308 308 307 307 306 306 307 307 307 307 307 306 306 306 306 305 305 304 303
296 296 296 296 297 298 300 303 304 304 306 308 307 306 307 306 305 304 302 303 308 312 310 307 307 307 306 307 307 307 308 309 309 308 309 310 310 310 310 310 309 309 308 308 308 308 308 309 310 311 311 309 310 311 311 311 310 310 309 309 309 309 309 310 309 308 308 308 307 307 307 307 306 306 306 307 306 306 306 306 306 305 305 304 303 302 302
297 297 296 296 296 298 300 302 303 303 304 305 305 307 307 304 302 303 303 305 309 311 308 307 307 306 306 307 308 307 308 309 308 307 307 309 310 309 309 309 309 308 308 308 308 308 308 308 308 309 310 310 309 310 311 310 310 309 308 308 308 308 308 308 307 307 307 307 307 307 307 306 306 306 306 306 306 306 305 305 304 304 303 303 302 302 302
298 297 296 296 296 298 301 302 303 305 306 307 309 310 307 303 302 303 303 307 311 309 305 307 307 305 305 307 307 306 307 308 308 306 306 308 309 308 307 307 307 307 307 308 308 307 308 308 308 308 309 309 308 309 309 309 308 308 308 307 307 307 307 307 307 307 307 307 307 307 306 306 306 306 305 305 305 305 304 304 303 302 302 301 302 302 302
299 297 296 296 296 298 300 302 304 306 308 309 309 308 305 303 303 303 304 309 311 307 305 306 306 305 305 306 306 306 307 307 307 306 306 307 308 307 306 306 306 307 307 307 307 307 307 307 308 308 308 308 308 308 308 308 307 307 307 307 307 307 307 307 307 307 307 307 306 306 306 306 305 305 304 304 304 304 303 303 303 302 301 301 301 302 302
299 298 296 295 296 299 302 304 305 307 308 308 307 306 304 303 303 303 304 309 311 308 306 306 305 306 306 305 304 305 306 306 306 307 306 306 306 306 306 305 305 306 307 306 306 306 306 307 307 307 307 308 308 308 308 307 307 307 307 307 307 307 307 307 307 307 306 307 306 305 305 305 304 304 304 303 303 303 303 302 302 302 302 301 302 302 302
300 298 296 296 299 301 304 306 307 308 307 305 304 304 303 304 304 305 306 309 310 308 307 307 305 306 307 305 304 305 306 306 306 305 305 305 304 304 305 305 305 305 305 305 305 306 306 307 308 307 307 308 308 307 307 307 307 307 307 307 307 307 307 307 307 306 306 306 305 305 305 304 303 303 303 302 302 302 302 302 302 302 302 301 302 302 302
300 298 298 301 303 303 303 306 307 306 303 302 303 305 305 305 305 306 306 307 307 306 307 307 306 306 306 306 305 305 306 306 305 304 304 304 304 303 304 304 304 304 304 303 304 306 305 306 307 307 306 306 307 307 307 307 307 307 307 307 307 307 306 306 306 306 305 305 305 305 304 303 303 302 302 301 301 301 301 302 302 302 302 302 302 302 302
302 301 302 303 304 303 305 306 305 303 303 303 305 306 305 304 304 305 304 304 305 306 306 306 306 306 307 306 305 305 306 306 306 305 304 304 304 303 303 303 304 304 303 303 303 305 305 304 305 306 306 306 305 306 306 306 306 306 307 307 307 307 306 306 306 306 306 305 305 304 303 303 302 302 301 301 301 301 302 302 303 302 302 303 303 303 302
305 305 304 303 305 306 307 305 303 303 305 306 305 305 304 304 304 304 304 304 304 305 306 307 307 307 308 307 305 304 305 307 307 305 304 304 304 304 304 303 303 304 304 303 303 304 304 304 303 304 305 305 305 305 305 305 305 305 305 306 307 307 307 306 306 306 306 305 304 304 303 303 302 302 302 302 302 302 302 302 302 302 302 303 303 303 303
304 305 305 305 305 305 305 304 304 305 306 305 304 304 304 303 303 303 303 304 304 305 305 307 307 306 306 307 306 305 305 306 307 305 304 303 304 304 304 303 303 304 304 303 303 304 304 304 304 304 304 304 305 304 304 304 305 305 305 306 306 306 306 306 305 305 304 304 303 303 302 302 302 302 302 303 303 303 303 303 303 303 302 303 303 303 303
300 300 302 302 303 304 305 304 305 305 304 303 304 304 303 303 304 303 303 303 305 305 305 306 307 306 306 307 307 305 305 305 306 305 304 302 303 304 303 302 303 304 304 303 304 304 304 304 305 305 304 304 304 304 303 303 304 304 305 306 306 305 305 305 305 304 303 303 303 303 302 302 302 302 302 303 303 303 303 303 303 303 302 303 303 303 303
300 300 301 302 305 306 305 304 304 303 303 303 303 303 303 303 303 303 303 304 305 305 306 307 307 307 306 306 306 305 305 305 305 305 304 303 303 303 303 303 303 304 304 303 304 303 302 304 306 305 303 303 303 303 303 303 303 303 304 305 305 305 304 304 304 303 303 303 302 302 302 303 303 303 303 303 303 303 303 303 303 303 302 302 303 303 303
303 304 303 304 304 303 303 303 303 303 303 303 303 303 304 304 303 304 304 304 304 305 306 306 306 306 305 306 306 304 304 304 304 303 303 303 303 303 303 303 303 304 303 303 304 303 302 304 307 306 304 303 303 303 303 303 302 302 303 303 304 304 303 303 303 303 303 303 302 302 302 303 303 303 303 303 303 303 303 303 302 302 303 303 303 303 303
305 304 304 302 302 302 302 302 302 303 303 303 303 303 304 304 304 304 305 305 305 306 305 305 306 306 305 305 305 304 303 304 303 303 302 303 303 303 303 303 303 303 303 304 304 303 302 304 307 306 304 303 303 303 303 302 303 303 303 303 303 303 303 303 303 303 303 303 303 303 303 303 303 303 303 302 302 302 302 302 302 302 302 302 303 303 303
304 304 302 301 301 302 301 301 302 302 303 303 304 304 304 305 305 305 306 306 306 306 306 305 306 306 305 305 304 304 304 304 303 303 303 303 303 303 303 303 303 303 303 304 303 303 303 305 307 306 304 303 304 303 303 303 303 303 303 302 303 303 303 303 303 304 304 303 303 303 303 303 303 303 303 302 302 302 302 302 302 302 302 302 303 303 303
304 303 301 300 301 301 301 301 302 303 303 304 304 304 305 306 306 306 306 306 306 306 306 306 306 306 305 304 304 304 304 304 303 303 303 303 303 302 303 302 302 303 303 303 303 303 304 306 307 307 305 304 304 303 303 303 303 303 303 303 303 303 303 304 303 304 304 303 303 303 303 303 303 303 303 303 303 302 302 302 302 302 302 302 303 302 302
304 302 301 300 300 300 300 301 302 303 303 304 304 304 305 306 306 306 306 306 307 307 307 306 306 306 305 305 304 304 304 304 303 303 303 303 303 302 302 302 302 303 303 303 303 304 305 306 308 307 306 305 305 304 303 303 303 303 303 303 303 303 304 304 304 303 303 303 303 303 303 303 303 303 302 302 303 303 302 302 302 302 302 302 302 302 302
303 302 301 300 300 300 301 302 302 302 303 304 303 304 305 305 305 306 306 306 306 307 307 306 306 305 304 304 304 304 304 304 303 303 302 303 302 302 302 302 302 303 303 303 304 305 306 307 308 307 306 305 305 304 304 304 303 303 304 304 304 304 304 304 304 304 303 303 303 303 303 303 303 303 302 302 302 302 302 302 302 302 302 302 302 302 302
303 302 302 301 300 301 301 302 302 302 303 303 303 303 303 303 304 305 306 306 306 306 306 306 305 304 304 304 303 303 304 304 303 303 303 303 302 302 302 302 303 303 303 304 305 306 307 307 307 307 306 305 305 305 305 304 304 304 304 304 305 305 304 304 304 303 303 303 304 303 303 303 303 303 303 302 302 302 302 302 302 302 302 302 302 302 302
302 302 302 302 301 301 301 302 301 302 302 303 303 303 303 303 304 305 306 306 306 306 306 305 305 304 304 303 303 303 304 304 303 303 303 303 303 303 303 302 303 304 304 305 305 306 307 307 307 307 306 306 305 305 305 305 305 305 304 304 304 304 304 304 304 304 303 303 303 303 303 303 303 303 303 303 302 302 302 302 302 301 301 301 301 301 301
302 302 301 302 302 302 302 302 302 302 302 303 303 304 304 304 305 306 306 306 305 305 305 305 304 304 304 303 303 304 304 303 303 303 304 304 304 304 304 304 304 305 305 306 306 305 306 306 307 307 307 306 306 306 306 306 306 305 304 304 303 303 304 304 304 304 304 304 303 303 303 303 303 303 303 303 303 303 303 302 302 301 301 301 301 301 301
Wind_Speed
13 11 10 10 10 10 9 10 10 11 10 7 4 3 2 2 1 6 11 15 15 10 6 7 8 7 7 8 9 8 6 6 5 3 1 1 3 5 6 8 7 5 7 9 13 17 13 14 15 11 13 14 12 18 22 20 20 17 12 13 11 4 5 9 9 10 12 13 15 15 13 13 14 13 13 13 12 12 11 8 8 8 9 10 6 5 4
13 11 10 10 11 11 10 11 12 11 9 8 6 3 2 2 3 5 9 13 12 8 5 6 7 8 8 9 10 9 8 7 6 5 4 2 4 6 7 7 6 4 5 8 11 14 12 13 15 12 12 13 14 19 22 19 18 15 11 10 9 5 7 8 8 9 10 8 9 12 12 11 11 11 14 15 15 17 13 9 8 7 10 12 7 3 5
13 12 11 11 11 11 11 12 12 9 7 6 5 3 2 2 4 5 8 10 8 6 4 4 5 6 7 9 9 8 7 6 5 6 5 4 6 8 7 7 7 6 6 7 9 13 13 12 13 12 10 10 11 17 20 17 16 15 13 11 9 6 8 8 8 11 12 10 9 10 11 10 9 11 16 18 19 20 14 9 8 7 10 13 7 5 7
13 13 12 12 12 13 13 13 13 11 7 5 5 4 3 2 3 5 6 7 6 6 5 6 6 5 6 7 8 10 9 5 3 5 7 8 9 9 8 8 8 8 8 7 7 12 14 11 10 12 10 9 10 15 19 19 16 14 13 12 10 6 6 5 5 6 5 8 12 12 12 12 12 15 18 17 17 18 14 10 8 7 9 8 5 14 15
14 14 13 13 13 14 14 14 15 13 6 2 5 5 3 2 2 6 6 5 6 7 7 8 6 4 5 4 4 9 9 4 2 4 6 7 7 8 9 10 9 8 8 7 6 11 14 12 11 11 10 8 11 14 18 16 10 11 12 12 9 6 5 3 2 2 2 5 9 13 15 15 16 16 16 15 14 14 11 10 5 3 5 3 8 18 19
14 14 13 13 13 14 15 15 16 13 5 2 4 4 2 1 1 4 4 2 5 6 6 7 5 3 6 3 3 6 9 6 4 4 5 6 7 7 7 10 12 10 8 8 7 8 11 13 13 11 10 11 13 14 18 15 9 9 13 12 8 6 6 5 5 6 4 2 4 10 14 15 16 16 14 13 13 11 10 9 4 4 1 6 11 15 16
15 14 14 13 13 13 14 15 14 11 4 2 4 3 1 2 2 3 3 1 4 3 2 4 4 1 3 3 2 5 7 8 6 4 5 6 7 8 8 9 12 12 10 8 7 4 6 11 11 5 5 9 11 12 15 14 10 12 13 10 8 6 5 7 8 8 7 5 5 8 8 6 7 11 11 10 11 12 11 8 2 6 11 14 16 17 15
15 15 14 14 13 13 14 14 13 9 4 3 4 2 2 2 1 1 0 2 3 1 2 1 2 1 3 2 3 5 7 8 8 6 6 6 7 9 11 11 11 10 10 10 8 4 6 10 10 5 2 7 9 9 10 12 12 14 13 9 6 4 4 8 9 7 7 8 8 7 8 9 9 7 7 7 8 9 9 8 11 14 15 17 20 19 13
16 16 15 14 14 14 13 13 12 8 5 5 4 1 5 5 3 3 3 3 1 2 3 3 1 0 0 2 3 4 7 9 8 7 8 9 9 9 11 11 9 9 11 11 7 3 5 6 9 7 6 8 8 7 7 12 14 14 12 8 6 5 5 8 9 7 7 9 11 13 14 15 14 11 8 6 6 8 9 8 9 14 18 19 17 13 10
17 16 16 15 14 14 13 13 11 8 7 7 4 3 7 7 3 2 2 3 1 2 3 4 1 2 4 7 7 6 8 11 10 7 6 8 11 9 8 7 6 7 9 6 1 1 3 5 9 6 7 7 7 6 8 13 14 11 10 8 6 8 7 6 7 7 7 9 10 13 14 12 9 8 5 2 5 10 11 11 11 13 16 13 8 9 12
17 17 16 15 14 13 13 13 12 9 9 7 5 5 6 6 4 2 2 2 0 1 1 2 3 3 4 8 9 8 9 8 8 8 4 5 8 6 4 4 3 3 4 5 5 3 7 7 6 7 8 6 6 6 10 15 13 9 9 8 8 11 9 6 6 6 8 9 8 9 10 8 4 3 2 4 3 11 14 13 14 12 10 9 11 15 17
17 16 15 15 14 13 12 13 12 11 8 6 6 6 5 6 5 3 1 2 1 1 2 3 4 4 4 4 5 6 4 3 5 7 4 3 5 4 4 6 4 4 3 4 5 4 7 10 7 9 11 10 8 6 8 11 10 9 9 8 9 12 9 5 4 6 7 7 7 8 7 3 3 2 1 2 8 15 17 16 14 12 15 18 20 20 18
17 16 16 15 13 13 13 13 13 12 9 7 7 7 6 5 5 3 1 3 2 1 3 5 5 5 6 4 3 2 2 8 10 8 5 4 5 3 2 4 7 6 2 3 5 4 4 8 8 8 11 11 10 9 9 6 5 8 10 8 7 10 8 5 4 5 6 6 6 5 3 3 3 5 5 8 11 12 13 14 12 10 13 17 19 19 18
17 17 16 14 13 14 15 14 14 13 11 9 8 9 7 5 5 3 2 2 2 3 4 4 3 2 3 5 5 1 6 9 10 10 9 6 4 5 6 7 7 3 1 1 4 6 4 4 5 5 5 6 8 9 8 6 4 5 8 9 9 9 8 7 6 4 6 6 4 3 3 4 4 5 7 8 6 4 6 8 7 7 11 15 18 19 18
18 17 16 15 15 15 15 15 15 13 11 8 8 8 8 6 5 4 2 2 3 3 3 0 1 0 2 4 5 1 6 8 8 9 11 9 6 4 5 7 4 2 3 1 3 5 4 3 4 4 3 4 5 6 6 5 5 4 4 5 6 6 6 8 8 5 6 7 6 5 4 4 4 8 9 5 2 3 8 9 6 6 10 14 17 19 19
18 18 17 16 16 15 15 16 15 13 10 8 8 8 8 6 6 5 4 3 4 2 3 3 1 4 5 1 2 3 5 6 6 7 8 9 9 6 4 5 4 4 2 3 4 4 4 4 4 3 2 3 4 4 4 4 5 5 5 4 4 5 6 7 7 7 7 7 6 6 3 2 4 10 11 7 4 5 7 5 4 8 12 14 16 18 18
19 18 18 17 16 16 16 16 16 13 10 9 8 7 6 4 6 6 5 4 3 2 6 6 2 4 4 3 6 5 3 3 5 6 5 7 10 8 5 6 6 4 1 4 4 3 4 3 2 2 1 2 3 4 4 3 4 6 6 5 3 3 4 6 5 5 7 8 5 3 2 3 6 11 11 8 6 6 7 5 5 12 14 13 16 17 17
19 19 18 17 17 17 17 17 16 13 11 10 7 6 5 4 6 6 5 5 4 2 7 9 7 4 3 4 5 4 3 2 3 5 5 6 8 7 6 5 5 7 6 3 2 4 4 3 4 4 4 5 5 4 4 4 4 4 5 5 4 4 4 5 5 5 7 6 4 4 4 4 7 10 9 8 7 6 6 2 7 15 16 14 15 17 17
20 20 19 18 18 18 18 18 16 14 13 9 4 4 3 2 5 6 5 5 4 3 8 10 10 10 8 6 6 6 5 5 4 2 4 5 4 3 5 3 2 5 6 5 5 6 5 6 6 5 6 7 5 5 6 5 4 4 5 5 5 4 5 6 6 6 6 5 5 6 4 2 3 8 8 5 4 4 2 6 12 17 17 16 16 16 16
20 21 20 19 19 19 20 19 17 16 14 6 1 2 2 1 4 6 5 5 5 2 7 11 12 12 12 9 9 9 7 7 7 5 2 4 3 2 4 4 3 4 4 5 5 4 4 5 4 3 6 6 4 4 5 5 4 2 1 2 2 1 2 5 3 1 5 7 6 4 3 3 6 8 7 1 1 4 8 11 15 17 17 17 16 14 13
21 21 20 20 20 19 20 20 18 17 15 6 2 2 2 2 4 6 6 6 6 2 7 10 12 13 13 12 11 11 9 9 9 7 5 4 3 2 1 2 2 2 2 3 3 2 2 3 3 2 3 4 3 5 6 5 5 4 5 2 3 5 4 2 4 4 3 4 4 2 5 8 8 7 5 4 4 9 12 13 14 15 15 14 12 11 12
21 21 21 21 20 19 19 20 20 19 16 8 3 3 2 1 3 5 6 7 7 3 3 6 7 9 12 12 12 11 10 10 9 8 7 4 2 2 1 2 2 2 2 2 1 2 2 3 3 3 4 3 4 6 7 5 5 4 3 2 3 6 5 5 7 6 4 5 6 6 8 9 6 4 7 10 11 12 14 14 14 13 12 11 11 13 15
22 22 22 21 20 19 19 19 20 19 18 11 2 4 5 2 2 4 6 8 9 4 2 3 4 7 10 13 13 11 10 10 9 8 7 5 3 1 2 3 3 2 2 4 3 1 1 2 2 3 4 3 3 6 6 4 4 6 4 4 5 6 5 6 7 8 10 10 7 8 10 10 9 9 10 11 13 13 14 15 14 13 12 12 13 15 16
22 22 22 21 20 19 19 19 19 18 16 13 6 4 5 3 2 4 5 7 6 2 4 6 6 7 9 11 12 12 12 12 10 8 5 4 4 2 3 5 4 2 3 4 3 3 2 2 0 1 3 2 0 4 5 4 5 6 5 4 5 4 2 4 7 8 6 6 6 9 11 11 11 11 11 12 14 14 13 13 13 13 14 14 15 16 17
22 21 21 20 19 19 19 19 19 17 14 11 8 6 6 4 3 4 5 6 5 1 4 6 6 8 10 10 12 13 13 12 10 9 6 4 5 4 3 3 4 3 4 3 2 2 0 1 1 3 4 2 2 2 4 3 4 5 4 4 5 3 3 5 8 5 4 7 9 10 11 11 11 11 10 11 13 14 14 13 14 15 16 17 18 18 16
22 21 20 20 19 18 18 18 19 18 15 9 5 5 6 5 4 4 6 7 6 1 4 5 6 9 11 11 12 14 13 12 10 10 9 7 6 5 3 1 1 2 2 2 2 2 0 1 1 3 4 2 1 1 4 4 4 5 4 4 4 3 4 6 10 9 9 10 11 11 12 11 10 11 11 11 12 14 15 15 16 17 18 18 19 19 18
21 20 19 19 18 17 17 17 17 19 16 9 4 4 5 5 4 4 5 6 4 0 3 4 4 7 10 12 13 14 14 13 11 10 10 9 8 6 4 2 2 1 1 1 1 1 2 3 3 3 4 4 3 3 4 5 5 6 6 4 3 4 6 7 9 9 7 9 13 13 10 9 9 11 13 13 14 15 16 17 17 18 18 18 18 18 20
21 19 18 18 17 16 16 16 16 18 17 10 4 5 6 5 3 3 6 7 5 2 2 4 3 2 5 9 13 14 14 14 12 11 11 11 10 8 6 4 3 2 2 2 1 2 3 4 4 3 3 3 3 4 5 5 5 6 6 4 3 4 6 5 5 6 7 12 15 11 8 10 11 12 13 13 14 15 16 17 17 18 19 19 18 18 19
20 19 17 17 16 14 15 15 15 16 17 11 4 5 6 4 1 4 9 9 7 5 1 3 3 2 3 6 10 12 13 14 14 13 12 11 10 9 7 6 5 4 3 4 4 4 5 5 3 4 3 3 1 4 5 5 5 6 6 5 5 8 7 4 2 7 11 14 13 9 10 14 14 13 14 14 15 16 16 17 18 18 20 21 19 18 18
20 18 16 15 14 13 14 14 14 15 15 11 5 6 4 3 3 6 12 12 8 6 2 2 3 3 3 4 6 8 10 12 13 13 12 11 9 8 7 6 5 4 4 4 5 4 5 4 4 4 3 5 2 3 5 5 5 6 4 3 5 7 6 6 5 9 13 12 10 11 14 16 14 14 14 15 17 18 17 17 19 20 22 23 21 19 20
19 17 15 14 13 12 12 13 13 14 14 11 6 4 1 2 4 9 12 10 8 7 2 2 3 2 3 2 4 6 7 8 8 9 10 9 8 9 9 7 5 5 5 5 5 4 4 4 3 3 3 4 3 1 4 5 6 5 6 6 5 4 5 7 9 12 14 13 13 15 16 15 15 14 13 14 18 20 17 18 22 23 22 23 21 20 21
19 17 14 12 11 10 10 11 13 13 12 9 6 4 3 4 8 11 10 8 7 6 2 2 1 1 2 2 2 3 6 5 3 5 7 7 6 7 8 6 5 5 5 4 5 5 4 4 4 4 3 3 3 1 4 5 6 7 8 8 7 6 8 11 12 12 13 14 16 17 16 15 14 15 15 17 20 22 20 21 24 24 23 22 22 21 21
18 16 13 10 10 9 9 10 11 11 11 8 4 2 6 8 9 8 7 5 5 5 2 1 0 1 1 1 2 1 5 5 0 3 5 5 4 4 5 5 5 5 4 4 4 4 3 4 4 4 3 3 2 3 6 6 8 9 9 9 8 9 10 12 12 12 12 13 13 14 15 16 17 18 20 21 21 23 24 24 24 23 22 21 20 19 19
17 14 11 9 8 8 8 9 10 10 9 7 2 1 6 9 8 5 5 4 4 4 2 1 1 2 1 1 2 2 5 5 1 4 4 3 3 2 4 4 3 3 4 3 3 4 3 3 4 4 4 4 4 5 6 7 10 11 10 10 10 11 11 12 12 12 12 12 12 13 15 19 20 20 20 20 20 22 23 23 22 21 18 16 16 17 18
15 12 9 7 7 7 7 8 9 8 7 4 1 3 6 6 5 4 4 3 3 3 1 2 3 1 2 2 2 3 4 3 3 4 3 2 3 3 3 3 3 4 3 1 2 5 4 1 1 3 4 4 4 4 5 8 10 10 10 11 12 11 12 13 12 12 12 13 14 15 17 19 20 19 18 18 19 20 20 20 20 19 16 15 15 17 17
12 9 7 6 6 6 7 7 6 6 5 3 5 6 7 5 4 5 3 2 4 3 1 2 3 1 0 1 3 2 2 1 2 2 2 2 2 2 2 3 4 4 3 2 4 6 3 2 2 3 4 4 4 6 7 9 11 11 11 12 11 11 12 14 14 14 15 16 17 18 18 19 19 17 17 17 17 18 18 18 18 17 16 15 14 15 16
8 6 6 5 4 5 7 7 4 3 5 7 8 7 7 5 4 4 3 4 4 3 3 3 2 1 2 2 3 2 2 1 2 2 1 2 2 2 2 3 3 2 3 4 5 4 3 2 2 5 6 5 6 8 9 10 10 11 11 12 11 11 12 13 15 16 17 18 19 18 17 17 17 16 15 16 17 17 17 16 16 16 16 15 13 14 15
5 4 4 5 5 5 5 4 2 2 6 8 8 5 4 4 4 4 4 3 2 2 3 4 1 1 0 0 3 1 1 1 2 2 1 2 1 1 1 2 1 0 2 4 3 2 3 5 5 6 7 6 7 9 10 10 10 10 11 11 11 11 12 13 15 17 17 17 17 17 17 17 17 16 15 16 16 16 16 16 16 16 16 15 14 15 15
3 4 6 8 6 2 1 2 2 4 5 5 5 3 3 3 4 3 3 3 2 2 3 3 1 1 1 1 3 2 1 2 1 2 2 1 1 0 1 1 0 1 2 4 2 1 2 5 5 5 6 7 7 8 9 9 10 10 10 11 12 12 12 13 14 16 15 14 14 15 15 16 17 16 15 15 15 15 15 16 17 17 17 15 14 15 15
3 4 5 5 1 4 5 5 4 4 4 4 4 3 2 3 3 2 1 3 4 2 1 1 0 1 2 2 2 4 0 3 3 1 4 3 1 1 1 2 0 1 2 4 1 1 2 4 5 5 5 6 7 8 8 8 8 9 10 11 13 15 16 15 15 16 16 15 16 18 18 18 18 17 15 15 14 13 14 15 16 16 16 15 13 14 14
7 5 3 3 7 9 8 5 3 4 4 3 3 3 2 3 2 1 2 4 5 2 1 2 2 3 2 3 1 3 3 1 3 2 3 3 1 1 1 3 0 1 3 4 1 1 3 4 4 4 6 7 8 9 9 9 9 9 9 11 13 17 18 17 16 17 17 16 15 17 20 21 20 19 17 17 16 14 14 15 15 16 16 14 12 12 13
8 8 8 10 12 10 6 4 4 4 3 2 2 3 3 2 2 3 3 4 2 2 3 3 2 2 3 0 1 3 3 0 2 2 1 2 1 1 1 2 1 0 3 3 1 2 3 4 4 5 7 8 9 10 9 10 11 11 12 12 13 16 17 16 15 17 19 18 16 18 20 20 20 19 18 17 16 15 15 14 14 14 15 14 12 12 12
6 6 7 8 7 5 4 4 4 3 2 2 2 3 3 3 3 4 4 2 1 2 3 2 1 2 3 1 1 2 3 0 2 2 1 2 1 1 1 1 0 1 3 2 2 3 3 3 4 6 8 9 9 10 10 11 11 12 13 14 16 17 17 17 17 18 20 19 19 19 20 19 19 18 17 16 16 15 14 14 13 13 14 14 12 11 11
4 4 4 3 3 3 3 3 2 2 3 3 4 4 5 5 4 4 3 3 3 4 4 4 4 4 4 3 1 2 2 2 2 0 2 2 1 1 1 1 1 2 2 3 3 2 3 2 5 8 10 10 9 10 11 12 12 12 13 15 17 18 18 18 18 18 18 18 19 19 18 18 18 17 16 16 16 15 14 14 14 13 12 12 12 11 11
4 4 3 2 1 1 1 2 2 3 4 4 5 5 5 6 6 5 4 3 3 4 5 5 5 5 4 3 2 2 2 2 2 1 2 2 1 1 1 1 2 2 2 3 3 3 3 4 6 9 12 12 11 11 12 12 12 12 13 14 16 16 17 17 17 16 16 18 19 19 17 17 17 17 16 16 16 15 14 14 14 13 12 12 11 11 12
4 3 3 3 2 2 2 3 3 4 4 4 5 6 5 6 6 4 3 3 3 4 5 5 5 5 5 4 2 1 2 2 2 2 1 2 2 2 1 1 1 2 3 3 3 3 4 5 7 9 12 13 13 13 13 12 12 13 13 13 14 15 17 18 17 16 16 18 18 18 17 17 17 16 16 16 15 15 14 13 13 12 12 12 11 12 12
4 3 3 3 2 3 4 4 4 4 4 4 5 6 6 5 3 1 2 2 3 3 5 5 4 4 5 4 2 2 3 2 2 2 1 1 2 2 0 1 2 3 2 3 4 4 4 6 8 10 13 14 14 14 14 13 14 14 14 14 14 16 17 18 17 17 18 19 18 17 17 17 17 16 16 15 15 14 14 14 12 11 11 11 11 12 12
3 3 3 3 3 4 5 5 5 5 4 4 5 5 4 3 2 2 3 2 2 2 5 5 4 3 4 4 3 3 3 3 3 2 1 0 2 2 1 2 3 3 3 4 4 4 3 6 9 11 13 14 15 14 14 14 15 16 16 15 15 17 18 17 17 17 19 20 18 17 16 17 17 16 15 15 14 14 14 14 13 11 10 11 12 13 13
3 3 3 3 3 4 5 5 6 6 5 4 4 5 4 4 5 5 4 3 3 4 5 4 4 4 4 4 3 3 3 3 3 2 2 2 3 3 2 3 3 4 4 4 3 2 4 6 9 12 14 14 14 14 14 14 15 16 16 15 16 18 18 19 19 19 19 19 18 17 17 17 17 16 16 15 14 13 14 14 13 11 10 11 12 13 13
4 4 4 4 4 4 4 4 5 6 5 5 5 5 5 6 6 4 4 4 4 4 4 4 4 3 3 3 3 4 4 3 3 3 4 4 4 3 3 4 4 4 4 4 2 2 4 6 9 11 14 14 14 14 14 14 14 15 17 19 19 19 19 20 20 20 20 19 18 18 17 17 17 16 16 15 15 14 14 14 13 12 11 11 11 12 13
4 4 5 6 6 6 5 5 5 6 6 5 5 5 5 6 6 4 4 4 5 5 5 5 4 3 3 4 4 3 2 2 3 4 5 5 4 4 5 5 5 3 3 3 3 3 4 6 8 10 12 14 14 14 14 15 16 17 19 21 21 20 20 20 20 20 20 19 18 18 18 17 17 16 15 15 15 15 14 13 13 13 11 11 11 11 11
4 4 5 6 7 7 6 5 5 5 5 6 5 4 4 5 5 4 4 5 6 6 6 5 5 4 4 5 4 3 2 2 4 5 5 4 4 4 4 5 4 3 3 4 4 3 3 5 7 10 11 13 14 14 15 16 17 19 21 22 22 21 21 21 20 19 19 19 18 18 18 17 16 16 15 15 16 15 14 14 14 14 13 12 11 12 12
Wind_Direction
0 4 4 356 354 358 355 347 344 341 335 324 299 270 233 235 128 127 153 173 183 198 218 204 208 223 223 233 250 251 244 247 248 226 204 295 268 261 260 255 254 231 234 241 208 189 181 186 194 192 178 180 194 189 183 185 187 189 200 186 172 197 222 196 197 200 193 188 191 198 207 212 203 203 219 218 204 209 220 222 216 212 223 230 212 142 117
1 4 3 355 356 358 354 348 344 338 334 333 320 290 242 183 143 126 152 178 196 217 227 214 210 211 219 237 246 248 246 241 240 234 218 233 264 265 262 251 249 234 235 254 229 197 180 184 194 194 179 178 194 190 182 187 188 185 195 184 162 185 213 195 189 191 187 190 196 192 198 216 214 201 209 217 211 209 219 232 224 219 230 226 208 140 132
360 1 0 357 357 355 350 349 347 338 327 316 294 269 267 186 144 123 150 178 209 237 253 277 254 215 218 243 252 253 248 234 248 267 254 242 255 264 270 263 266 274 259 257 243 211 188 180 190 195 178 166 184 188 183 190 193 184 188 183 167 193 209 195 200 199 187 188 197 194 193 203 215 209 206 212 216 210 207 220 219 217 233 228 204 130 126
360 359 2 360 357 354 349 351 356 348 327 284 260 254 264 227 142 134 161 184 219 243 254 267 266 242 226 241 252 248 237 208 212 266 262 253 252 258 272 276 278 279 257 248 244 212 188 172 187 189 163 155 182 185 183 193 190 172 172 177 172 190 205 197 221 225 208 203 200 194 194 196 205 212 208 211 222 216 205 210 214 209 227 234 146 128 137
1 359 1 359 355 354 350 354 359 353 341 259 252 257 259 269 158 155 169 187 209 226 241 242 244 242 227 233 255 238 230 220 200 229 247 253 256 262 266 260 261 265 244 228 231 205 179 168 183 172 142 162 187 184 188 193 164 136 159 182 186 187 186 176 177 183 271 256 206 190 194 198 201 207 208 211 222 227 219 207 198 221 243 227 124 132 140
1 357 358 356 354 354 353 355 359 355 354 191 249 267 240 249 190 159 154 185 210 206 225 239 239 243 236 247 314 255 244 256 252 241 255 253 250 256 255 244 243 248 239 221 221 207 179 176 187 170 149 172 183 182 190 183 147 151 180 187 190 192 178 168 159 157 171 254 213 193 200 206 205 203 201 205 211 216 224 229 255 339 35 141 140 137 133
359 358 358 358 356 355 353 355 358 357 360 220 260 286 265 235 228 155 131 287 259 217 207 230 215 254 284 276 298 278 264 263 261 264 268 256 243 242 249 250 237 231 237 230 219 224 195 180 179 166 158 181 179 178 185 176 165 184 189 178 185 196 176 167 163 151 152 162 176 188 188 179 183 189 189 202 212 206 210 222 196 88 104 124 131 124 120
359 358 360 1 359 355 354 357 0 1 351 282 261 275 343 307 301 66 124 281 280 257 65 93 175 50 353 308 275 270 264 267 271 269 262 257 247 233 235 249 242 229 234 225 205 229 233 188 155 126 170 196 186 180 177 172 179 190 186 173 172 174 160 166 161 135 136 151 150 152 143 114 104 123 151 176 192 177 155 133 112 104 106 117 121 117 113
357 358 360 0 359 357 357 2 7 10 349 311 272 324 3 335 331 10 324 287 300 96 88 76 74 12 317 250 270 260 254 266 275 273 265 255 248 233 226 240 256 251 234 213 192 225 234 177 123 128 196 202 187 190 178 169 179 189 181 162 155 168 174 173 170 154 147 151 141 134 128 114 101 94 97 123 143 130 114 106 114 124 127 127 126 125 130
355 356 357 358 360 1 2 5 11 16 5 345 322 2 3 340 325 6 314 284 41 96 109 107 135 251 208 214 230 238 252 261 256 256 265 246 240 246 248 255 269 249 216 187 104 26 159 115 92 129 220 218 178 193 199 179 179 183 170 153 159 177 179 177 179 165 146 145 143 139 137 131 115 96 72 58 109 109 98 80 83 115 137 143 141 139 141
353 353 354 356 357 359 2 5 9 16 19 8 345 341 358 348 325 319 294 290 70 135 155 172 211 252 228 219 231 250 265 261 234 229 232 208 211 227 266 280 269 216 162 101 41 47 124 117 109 147 180 185 167 183 190 180 180 180 167 162 175 181 184 190 183 156 137 144 158 174 178 173 143 97 315 289 112 103 95 82 75 84 99 99 106 125 135
352 352 350 351 352 356 1 3 4 8 11 359 329 319 338 339 313 286 292 318 312 235 271 253 246 279 283 253 259 280 299 84 147 197 205 144 159 183 242 241 196 153 119 77 43 46 118 130 128 118 118 128 141 137 144 163 180 185 178 179 184 180 176 173 165 149 138 146 175 196 194 174 127 133 301 24 87 93 88 80 74 80 94 101 110 125 136
351 350 349 350 353 355 356 355 354 354 354 347 327 312 316 319 302 286 294 305 293 249 276 278 269 273 279 276 272 273 74 93 121 150 150 125 132 133 175 171 139 126 103 65 63 60 109 129 125 95 85 100 116 108 99 112 161 185 190 194 189 178 165 145 141 144 144 159 188 191 157 108 119 135 115 100 110 114 95 74 65 80 107 116 121 127 130
349 349 350 352 354 352 349 348 345 343 343 339 321 302 297 292 285 291 304 295 279 240 249 274 284 258 274 293 295 34 87 87 101 114 113 112 107 83 83 99 104 101 327 23 131 147 149 131 118 96 81 102 117 118 115 105 106 156 180 181 183 192 180 150 140 156 165 156 136 109 133 151 148 154 153 138 133 135 104 86 77 93 113 122 125 126 128
348 347 347 348 352 353 350 345 340 338 338 333 312 294 287 274 262 271 285 292 289 252 210 161 38 246 255 273 280 321 88 88 90 98 102 103 101 91 95 105 115 256 276 262 152 136 122 116 112 106 132 156 143 134 137 133 122 122 134 148 171 201 192 156 151 176 181 160 143 149 171 176 170 179 183 172 77 78 105 107 104 119 129 132 131 131 133
347 345 346 350 353 354 350 343 338 339 339 331 312 292 282 257 233 245 258 267 288 324 81 70 3 266 270 282 68 50 67 91 104 105 104 109 117 128 149 158 195 261 312 53 77 76 67 84 111 117 152 167 148 137 143 151 146 131 113 116 157 186 183 174 174 176 175 179 181 173 156 84 141 164 173 186 205 173 150 139 135 147 148 143 138 137 138
349 349 352 354 355 353 349 344 342 343 338 328 313 293 283 248 216 232 256 266 282 30 50 30 346 251 278 15 53 39 33 97 113 106 105 114 117 122 159 180 185 207 117 65 68 76 69 67 108 136 133 162 157 145 145 147 137 132 133 143 188 211 182 177 186 179 177 187 180 129 68 59 126 148 161 170 175 186 198 211 169 155 154 150 145 143 142
353 355 357 357 356 355 351 347 345 344 338 326 303 275 274 250 222 232 258 277 286 42 42 19 19 42 18 9 25 20 8 40 86 101 116 119 114 129 167 172 174 191 188 160 148 155 145 168 194 172 145 159 164 149 148 151 141 143 145 149 186 207 173 169 194 189 177 177 147 98 80 89 121 142 154 154 158 188 213 192 140 148 152 150 147 144 143
356 358 358 358 357 357 355 351 347 344 342 332 288 264 281 242 219 227 246 283 304 43 44 26 29 38 27 12 16 18 4 349 1 68 133 119 105 144 165 149 179 200 186 178 186 181 174 181 183 164 152 156 152 139 140 137 131 153 162 162 177 186 167 173 195 198 181 159 120 112 111 95 139 145 138 142 176 186 128 103 127 142 146 145 144 141 141
356 358 358 358 358 360 359 355 352 349 346 345 240 273 320 201 216 226 238 291 314 33 44 29 33 39 35 31 24 14 3 0 2 360 49 79 77 218 187 163 192 199 174 176 187 190 190 177 165 159 157 151 141 138 130 104 82 88 116 137 115 65 204 178 150 170 193 165 138 131 131 150 174 157 130 78 288 119 113 120 130 135 137 138 139 137 136
354 356 358 359 359 1 1 359 359 356 356 14 137 255 295 181 220 234 230 269 299 15 45 31 34 38 38 37 27 14 12 14 5 348 356 44 52 297 225 131 154 179 176 192 187 174 186 170 148 143 148 141 154 164 148 127 107 57 8 20 67 15 322 189 82 8 272 172 129 92 107 133 164 165 124 97 105 119 128 131 129 131 135 135 134 133 134
352 354 356 358 360 1 1 2 3 2 4 29 119 259 311 135 206 230 221 245 270 295 1 9 29 40 40 39 32 24 21 16 4 349 339 346 1 344 19 58 44 30 359 323 230 150 161 169 157 151 153 152 160 161 157 156 144 111 35 11 55 39 40 85 74 45 40 77 89 94 102 115 128 113 105 113 116 122 131 130 128 133 134 132 132 132 131
352 352 353 356 358 359 1 3 5 4 5 16 27 293 323 4 208 227 231 245 254 258 333 9 38 46 39 34 31 30 28 20 12 5 348 331 330 356 79 55 27 25 22 360 340 320 165 176 176 151 144 137 143 156 160 163 147 131 99 57 64 76 84 83 90 99 84 67 77 104 106 108 107 100 106 116 117 123 128 127 128 131 130 131 134 132 132
352 351 352 354 355 357 360 2 4 5 1 2 6 333 321 325 257 246 255 259 254 227 66 50 39 33 29 27 26 25 23 19 16 15 6 333 321 335 62 42 7 357 59 35 341 330 29 74 45 117 117 80 74 167 157 138 132 132 120 98 96 107 110 96 122 145 128 84 97 113 109 109 108 105 110 117 120 127 130 126 127 130 127 128 131 131 134
351 349 350 351 352 354 358 359 2 3 357 355 6 357 326 318 304 276 279 284 278 269 79 65 43 34 31 30 28 22 16 15 17 20 22 9 344 349 30 32 2 5 34 26 294 271 134 156 223 156 128 55 313 175 132 122 144 141 129 116 108 126 170 122 107 111 110 113 126 123 111 111 112 112 118 123 124 127 127 124 126 128 127 128 130 133 136
349 348 348 349 349 351 355 357 358 358 353 346 353 347 328 333 344 311 294 296 292 296 88 84 64 49 41 35 30 23 15 16 22 24 30 37 36 36 49 66 53 32 22 11 339 335 45 186 200 145 130 89 342 113 96 103 136 126 103 86 81 112 152 112 95 97 107 122 136 133 118 116 119 117 119 124 127 128 126 123 126 130 130 130 131 134 136
347 346 345 346 346 347 351 355 355 353 349 337 306 295 307 327 343 333 326 324 309 292 94 93 82 62 48 37 31 26 21 22 25 30 36 42 49 53 53 62 93 107 88 81 54 11 67 80 61 70 102 97 85 91 95 102 113 109 97 81 81 129 127 107 112 130 140 148 155 150 135 130 133 128 126 129 130 129 128 128 131 134 134 133 133 134 134
346 344 342 343 344 344 348 353 353 351 349 340 294 262 275 296 326 353 354 344 317 298 58 81 89 68 45 32 26 28 31 30 30 35 42 45 48 51 47 42 56 65 51 65 102 103 85 77 72 83 93 88 93 106 110 117 122 110 92 59 43 114 125 128 146 149 143 152 161 159 136 131 138 138 136 134 133 134 135 135 137 137 136 135 135 135 136
342 341 339 339 339 341 346 351 352 352 354 351 309 257 261 266 325 357 350 345 325 300 346 91 88 57 36 21 20 31 39 38 36 40 45 48 50 52 53 50 50 53 57 59 67 78 76 59 57 80 59 350 293 143 135 136 128 107 84 53 52 74 72 39 69 116 130 147 158 147 123 131 140 141 139 139 139 138 138 138 138 137 136 135 136 138 140
340 339 336 334 334 337 343 347 349 354 357 348 300 257 236 155 92 359 346 350 342 309 289 97 83 69 55 18 10 27 38 39 39 41 43 45 47 48 51 54 55 58 69 74 70 80 93 76 61 75 45 354 334 159 147 132 116 105 100 89 77 74 55 28 63 118 133 138 137 124 122 129 136 137 138 140 140 139 138 138 137 137 137 139 141 141 139
337 335 331 329 329 331 337 343 346 353 358 348 316 286 235 111 25 347 343 353 343 309 285 100 97 115 100 37 360 10 20 28 39 44 44 44 47 49 49 51 53 53 63 80 76 66 81 83 82 109 87 9 344 168 144 126 120 121 128 123 103 94 97 87 95 117 126 124 122 123 124 128 133 135 137 139 139 139 138 136 136 139 141 141 139 136 135
334 331 326 323 322 321 329 340 344 348 355 352 344 1 17 353 332 326 334 354 341 304 266 113 122 190 95 76 43 357 347 347 28 49 40 33 41 55 56 54 60 57 53 75 81 64 67 73 73 95 93 349 313 173 128 120 122 124 127 124 112 107 112 106 104 113 122 126 129 129 128 131 136 136 136 138 139 139 138 137 139 142 141 137 134 133 134
330 326 320 316 313 311 317 331 337 338 333 321 310 353 356 344 334 324 329 349 324 287 284 42 175 190 47 88 135 9 326 307 332 67 42 19 24 67 72 63 68 64 43 51 76 78 87 97 90 83 60 357 352 88 92 101 122 128 128 125 117 114 116 115 114 119 127 133 136 134 132 133 135 134 134 137 139 139 138 139 140 140 138 136 135 135 134
326 320 314 308 302 299 306 319 329 326 311 293 265 26 340 337 342 343 340 328 282 261 280 308 232 145 96 207 149 43 339 316 17 72 55 16 352 45 85 76 64 55 38 43 80 91 92 102 107 99 75 52 61 81 92 112 128 132 131 128 125 125 126 126 127 131 135 136 134 129 129 131 133 134 135 137 139 140 140 140 140 139 138 137 137 136 136
321 314 308 300 291 290 297 307 312 302 279 263 37 5 324 323 342 4 15 352 276 253 213 257 252 200 181 194 131 52 345 332 35 58 69 61 12 23 79 87 64 49 32 17 95 95 83 53 141 121 102 83 80 95 123 134 135 136 136 134 135 137 137 136 137 139 138 135 131 129 132 135 135 137 139 141 142 143 143 142 142 141 139 137 137 139 138
320 311 303 293 287 287 280 271 274 275 273 306 344 323 298 297 316 330 340 295 265 275 289 240 241 241 238 115 90 65 292 262 92 77 95 102 57 23 69 93 79 68 59 53 81 88 73 302 258 130 110 90 86 103 126 137 138 139 141 141 143 145 142 141 142 141 137 134 133 134 139 141 140 141 143 143 144 145 145 144 144 142 140 139 140 141 140
316 307 293 274 258 260 258 247 236 261 298 320 326 307 282 275 280 274 260 247 246 261 282 274 267 20 1 41 97 123 252 227 127 103 85 98 81 33 53 83 89 96 91 74 71 74 58 32 84 108 99 87 92 108 124 135 138 139 141 143 145 145 141 140 142 140 136 136 139 142 145 145 143 143 143 143 145 147 147 146 146 144 141 141 143 142 142
315 300 271 249 233 230 240 237 216 271 296 309 312 289 248 245 245 220 210 225 225 224 261 278 315 97 277 74 103 104 297 279 150 129 89 93 111 87 71 73 62 173 107 88 74 58 68 75 88 99 97 100 109 116 125 133 135 137 142 142 141 142 142 142 144 142 141 144 149 151 150 147 145 145 145 145 147 148 147 145 145 143 142 144 144 143 145
291 249 236 233 229 228 345 359 326 294 288 285 276 251 210 221 243 229 203 220 235 209 227 244 214 167 223 132 111 109 312 296 216 147 117 83 37 31 123 106 58 225 135 112 116 233 109 99 106 112 112 118 121 119 122 128 131 136 141 141 139 143 145 147 149 150 149 150 150 148 147 148 148 147 147 147 146 147 147 146 145 145 146 147 145 146 150
324 266 232 220 246 4 358 348 321 287 260 227 222 237 239 224 235 239 211 222 226 205 205 244 134 68 326 310 125 127 118 315 322 78 101 93 31 323 88 94 85 232 128 105 104 246 133 120 130 133 128 132 133 129 130 131 131 135 141 141 142 147 149 150 151 150 147 145 144 145 147 148 147 145 146 147 147 147 147 146 147 148 149 148 149 152 155
353 330 296 303 325 330 328 317 273 239 235 217 204 222 239 225 220 232 235 230 221 184 175 243 197 155 197 272 268 121 122 317 321 10 85 92 23 299 94 99 100 272 99 98 126 208 140 134 146 136 125 132 140 141 140 137 136 140 145 143 142 144 145 146 147 145 144 145 146 146 147 147 146 146 147 147 147 147 146 146 150 152 151 150 155 160 160
332 310 299 298 300 300 294 262 221 206 222 242 217 214 226 226 214 217 224 235 234 172 171 219 228 142 130 83 21 75 92 12 285 275 125 104 25 311 97 120 217 241 92 102 189 198 146 140 144 131 128 137 143 143 140 138 138 142 144 145 144 144 145 147 147 146 146 147 146 145 147 147 146 146 147 147 148 149 147 148 155 158 155 154 163 170 167
325 298 293 289 278 260 233 223 208 188 212 231 204 195 211 214 217 222 218 218 244 199 172 178 193 113 117 123 48 70 86 133 278 289 88 105 134 257 139 135 211 88 98 141 210 184 158 161 149 136 139 146 148 146 144 140 140 142 143 145 148 148 148 148 147 146 146 147 145 146 148 148 146 147 149 149 150 151 149 152 162 167 160 158 169 180 175
294 259 265 262 234 212 212 215 196 187 211 211 195 197 207 205 213 225 207 182 193 196 173 174 195 186 170 182 203 128 130 193 248 292 97 130 176 198 145 115 91 99 144 208 205 150 130 134 132 136 144 150 152 151 149 145 145 146 145 147 150 151 149 149 149 148 148 148 148 148 150 150 149 152 153 152 154 158 159 161 168 173 168 165 174 181 175
256 229 223 217 215 216 209 195 188 205 216 211 206 211 208 201 209 217 195 161 178 183 167 176 195 183 157 163 194 183 176 193 188 151 169 184 171 87 64 101 123 161 207 208 181 150 145 141 134 140 151 157 157 156 154 153 152 152 151 151 153 154 153 153 153 151 150 151 152 153 154 153 153 156 160 161 164 167 167 166 169 174 174 175 178 175 170
251 243 221 209 224 238 220 202 200 209 215 214 215 221 222 215 214 205 161 154 193 183 163 175 193 177 158 165 193 197 192 182 145 135 203 191 135 89 29 59 172 219 227 204 191 195 182 160 150 153 158 159 158 158 158 158 157 157 157 158 158 157 157 158 157 155 154 155 157 158 157 157 159 163 167 167 168 168 168 169 171 175 177 178 175 169 167
251 257 234 216 218 220 217 216 216 214 216 219 219 224 229 229 217 123 111 194 222 183 156 174 195 174 156 169 198 202 193 173 135 136 230 204 123 115 292 251 216 216 208 197 210 218 181 150 150 156 159 160 160 161 162 163 164 164 164 162 161 161 162 162 162 161 159 158 161 162 162 161 164 167 168 167 168 170 170 169 171 175 177 175 171 167 170
261 255 234 223 217 209 209 220 227 226 224 231 231 230 233 238 231 188 164 194 231 188 162 175 188 166 157 181 213 205 175 146 132 145 204 155 125 141 191 225 220 217 213 211 214 209 168 144 147 154 160 163 163 164 165 166 168 169 169 167 166 167 166 165 165 165 163 162 164 166 165 164 165 168 171 172 173 174 171 168 169 174 177 177 175 172 174
266 268 248 237 242 232 217 219 229 228 216 211 223 229 227 233 234 216 176 171 208 205 178 175 188 181 172 180 205 199 175 159 158 171 184 184 181 185 197 204 203 209 217 222 214 160 132 135 144 153 160 165 167 167 169 170 170 171 172 172 172 172 172 171 171 169 168 169 170 170 169 169 171 173 176 178 179 179 175 172 171 175 180 185 186 182 180
239 253 246 232 237 239 223 213 231 235 218 200 206 215 215 222 225 209 171 178 206 199 176 179 200 196 174 170 193 206 203 191 181 179 189 201 207 205 201 206 211 210 204 203 192 134 125 135 147 156 163 167 170 170 170 170 171 173 175 175 176 177 176 176 175 174 174 176 176 174 174 177 180 180 179 179 181 182 181 178 177 181 186 190 193 190 186
222 238 239 234 237 238 222 209 222 233 224 210 204 202 208 218 216 190 173 194 205 192 182 192 198 185 174 188 202 207 193 179 186 197 204 211 213 207 203 212 223 214 176 157 147 131 134 145 154 161 165 169 172 173 172 170 171 174 176 176 178 179 180 179 179 178 178 179 180 179 181 185 187 185 182 182 185 187 186 184 186 190 191 189 191 192 189
226 227 230 237 244 247 237 223 224 235 237 228 209 186 198 217 207 168 167 203 210 199 194 197 192 185 190 201 203 192 167 179 207 217 217 212 208 208 214 223 228 214 166 146 144 148 150 152 158 164 168 170 173 173 171 170 172 175 177 177 178 180 181 182 182 182 181 180 182 185 188 189 190 189 188 189 192 192 190 189 193 197 196 191 192 195 195